[[{"header":{"parameterUnit":"m.s-1","parameterCategory":1,"la1":30.2991,"la2":30.254,"lo1":-89.0895,"lo2":-89.0444,"dy":0.0017,"dx":0.0017,"nx":28,"ny":28,"refTime":"2024-10-04T03:00:00:Z","depth":0,"parameterNumber":2,"parameterNumberName":"U-component_of_WINDS"},"data":[0,0,0,0,0,0,0,0,0,0,0,0,0,0,0,0,0,0,0,0,0,0,0,0,0,0,0,0,0,0,0,0,0,0,0,0,0,0,0,0,0,0,0,0,0,0,0,0,0,0,0,0,0,0,0,0,0,0,-4.0922,-4.0922,0,-4.0936,-4.0936,-4.0936,-4.0791,-4.0787,-4.0783,-4.0779,-4.0795,-4.0799,-4.0803,0,0,0,0,0,0,0,0,0,0,0,0,0,-4.0772,-4.0775,-4.0922,-4.0922,-4.0923,-4.0936,-4.0936,-4.0936,-4.0792,-4.0787,-4.0782,-4.0777,-4.0794,-4.0799,-4.0804,0,0,0,0,0,0,0,0,0,0,0,0,0,-4.0817,-4.0776,-4.0922,-4.0852,-4.0846,-4.0936,-4.0936,-4.0936,-4.0793,-4.0787,-4.0781,-4.0775,-4.0792,-4.0798,-4.0804,-4.0963,0,0,-4.0823,-4.0826,0,0,0,0,0,0,0,0,-4.0814,-4.0822,-4.0862,-4.0857,-4.085,-4.0855,-4.0889,-4.0945,-4.0794,-4.0813,-4.0779,-4.0772,-4.082,-4.0824,-4.0839,-4.0964,-4.0964,-4.0824,-4.0828,-4.083,-4.0832,0,0,0,0,0,0,0,-4.0811,-4.0821,-4.0928,-4.0863,-4.0856,-4.082,-4.082,-4.0899,-4.085,-4.0811,-4.08,-4.0804,-4.0816,-4.0834,-4.0839,-4.0964,-4.0824,-4.0829,-4.0833,-4.0835,-4.1219,-4.1226,0,0,0,0,0,0,-4.0818,-4.0819,-4.0927,-4.0928,-4.0817,-4.0828,-4.0827,-4.086,-4.0849,-4.0841,-4.0809,-4.0797,-4.0826,-4.0832,-4.0839,-4.1024,-4.083,-4.0836,-4.084,-4.1213,-4.1221,-4.1228,0,0,0,0,0,0,-4.0815,-4.0829,-4.0927,-4.0871,-4.088,-4.0837,-4.0874,-4.0863,-4.0881,-4.0847,-4.0838,-4.0836,-4.0822,-4.083,-4.0933,-4.1023,-4.0839,-4.0845,-4.1205,-4.1215,-4.1224,-4.1397,0,0,0,0,0,0,-4.0811,-4.0828,-4.0888,-4.0873,-4.0884,-4.1021,-4.088,-4.0868,-4.0892,-4.0877,-4.0871,-4.0864,-4.0818,-4.0924,-4.0939,-4.1028,-4.0849,-4.1197,-4.121,-4.1221,-4.1383,-4.1411,-4.1435,0,0,0,0,0,-4.0806,-4.0936,-4.0892,-4.0906,-4.0958,-4.1026,-4.1033,-4.0976,-4.09,-4.096,-4.0938,-4.0864,-4.101,-4.0936,-4.0952,-4.1044,-4.1191,-4.1206,-4.122,-4.1371,-4.1406,-4.1435,0,0,0,0,0,0,-4.0964,-4.0933,-4.0884,-4.1013,-4.1023,-4.1002,-4.1075,-4.1014,-4.1047,-4.1032,-4.096,-4.096,-4.1075,-4.1069,-4.0987,-4.1197,-4.1087,-4.1106,-4.1197,-4.1229,-4.1255,-4.1255,-4.0855,0,0,0,0,0,-4.1013,-4.1071,-4.1041,-4.1158,-4.1166,-4.112,-4.1148,-4.1103,-4.1112,-4.1116,-4.1101,-4.1113,-4.1161,-4.1194,-4.1237,-4.138,-4.1378,-4.1451,-4.1478,-4.1499,-4.1517,-4.1593,-4.1626,-4.1276,-4.1275,-4.1275,0,0,-4.1117,-4.1107,-4.1148,-4.119,-4.1192,-4.1255,-4.1125,-4.1196,-4.1242,-4.1126,-4.1223,-4.1213,-4.1221,-4.1345,-4.1399,-4.1344,-4.1612,-4.1518,-4.1535,-4.1541,-4.1611,-4.1644,-4.1674,-4.1285,-4.1284,-4.1282,0,0,-4.1337,-4.1336,-4.1433,-4.1438,-4.1444,-4.1413,-4.1436,-4.1424,-4.1413,-4.1508,-4.1423,-4.1476,-4.1561,-4.157,-4.1586,-4.1809,-4.1743,-4.1825,-4.1963,-4.2038,-4.2066,-4.209,-4.2171,-4.2201,-4.1842,-4.1842,-4.1843,0,-4.1466,-4.1555,-4.1491,-4.1568,-4.1589,-4.1486,-4.1585,-4.1593,-4.1613,-4.163,-4.1567,-4.1671,-4.1669,-4.1795,-4.1849,-4.1865,-4.189,-4.1826,-4.2067,-4.209,-4.2112,-4.2188,-4.2219,-4.1852,-4.1851,-4.185,-4.1849,0,-4.1713,-4.1777,-4.1855,-4.1876,-4.1905,-4.1993,-4.1942,-4.198,-4.1932,-4.1908,-4.2007,-4.2,-4.204,-4.2066,-4.2021,-4.2186,-4.2151,-4.2079,-4.1968,-4.2156,-4.2227,-4.2256,-4.1867,-4.1863,-4.186,-4.1858,0,0,-4.2035,-4.2019,-4.2049,-4.2057,-4.2056,-4.2104,-4.2187,-4.2225,-4.2259,-4.2276,-4.2344,-4.2418,-4.235,-4.2369,-4.2323,-4.2389,-4.2568,-4.2308,-4.2307,-4.2358,-4.275,-4.2806,-4.2841,-4.2523,-4.2528,-4.2532,-4.275,0,-4.2251,-4.2391,-4.2335,-4.2481,-4.2539,-4.2442,-4.2514,-4.2521,-4.25,-4.2547,-4.2523,-4.2577,-4.2484,-4.2494,-4.2555,-4.2534,-4.2646,-4.2517,-4.2587,-4.2591,-4.259,-4.2878,-4.2937,-4.3143,-4.2777,-4.2782,-4.2785,0,-4.2522,-4.255,-4.2701,-4.2689,-4.2712,-4.2778,-4.2808,-4.2853,-4.286,-4.2839,-4.286,-4.28,-4.288,-4.2769,-4.2879,-4.2793,-4.2818,-4.2812,-4.2818,-4.2824,-4.2701,-4.2893,-4.3207,-4.3239,-4.2828,-4.2824,-4.2821,0,-4.2744,-4.2819,-4.2919,-4.2929,-4.2917,-4.2966,-4.2963,-4.2963,-4.299,-4.3016,-4.3033,-4.3069,-4.309,-4.3119,-4.307,-4.2993,-4.3189,-4.3073,-4.3175,-4.3177,-4.3223,-4.3221,-4.3547,-4.3237,-4.3236,-4.3235,-4.3235,0,-4.2992,-4.3089,-4.3018,-4.308,-4.3186,-4.312,-4.3226,-4.3213,-4.3214,-4.3272,-4.319,-4.3246,-4.3177,-4.3227,-4.319,-4.3288,-4.3297,-4.3284,-4.3273,-4.3293,-4.3295,-4.331,-4.3295,-4.3244,-4.3242,-4.324,-4.3239,0,-4.3258,-4.3215,-4.3318,-4.3298,-4.3295,-4.3374,-4.3357,-4.3414,-4.3386,-4.3461,-4.3474,-4.3432,-4.3486,-4.344,-4.3493,-4.3467,-4.3598,-4.3566,-4.3597,-4.3589,-4.3695,-4.3686,-4.4043,-4.4087,-4.3747,-4.3751,-4.3753,0,-4.3421,-4.3493,-4.348,-4.3513,-4.3515,-4.3569,-4.3596,-4.3533,-4.3565,-4.3577,-4.3633,-4.3679,-4.3714,-4.3806,-4.378,-4.382,-4.3789,-4.3912,-4.3795,-4.3812,-4.3793,-4.379,-4.3798,-4.3936,-4.394,-4.3943,-4.3946,0,-4.3714,-4.3688,-4.3729,-4.3764,-4.3797,-4.3821,-4.3839,-4.387,-4.3806,-4.3846,-4.39,-4.3927,-4.398,-4.4029,-4.406,-4.4057,-4.3993,-4.3983,-4.4009,-4.4031,-4.4046,-4.4041,-4.3663,-4.3975,-4.3972,-4.397,-4.3969,-4.3968,-4.3934,-4.3993,-4.3994,-4.4043,-4.4049,-4.4067,-4.412,-4.4098,-4.4143,-4.4181,-4.4141,-4.4208,-4.4212,-4.4247,-4.4252,-4.4304,-4.4253,-4.4291,-4.43,-4.4311,-4.4327,-4.4036,-4.4309,-4.4308,-4.4307,-4.4306,-4.4306,0,-4.4224,-4.4219,-4.4264,-4.4291,-4.433,-4.4263,-4.4279,-4.4316,-4.4375,-4.4384,-4.4419,-4.4482,-4.4528,-4.4506,-4.4546,-4.4592,-4.4563,-4.4605,-4.4602,-4.4603,-4.437,-4.4344,-4.4628,-4.4628,-4.4627,-4.4627,-4.4627,-4.4627,-4.4379,-4.4477,-4.4452,-4.4552,-4.4546,-4.4611,-4.4626,-4.4642,-4.4649,-4.4722,-4.476,-4.4745,-4.4741,-4.4781,-4.482,-4.4812,-4.4832,-4.4885,-4.4867,-4.4651,-4.4619,-4.4589,-4.4564,-4.489,-4.489,-4.5096,-4.5098,-4.5099]},{"header":{"parameterUnit":"m.s-1","parameterCategory":1,"la1":30.2991,"la2":30.254,"lo1":-89.0895,"lo2":-89.0444,"dy":0.0017,"dx":0.0017,"nx":28,"ny":28,"refTime":"2024-10-04T03:00:00:Z","depth":0,"parameterNumber":3,"parameterNumberName":"V-component_of_WINDS"},"data":[0,0,0,0,0,0,0,0,0,0,0,0,0,0,0,0,0,0,0,0,0,0,0,0,0,0,0,0,0,0,0,0,0,0,0,0,0,0,0,0,0,0,0,0,0,0,0,0,0,0,0,0,0,0,0,0,0,0,-3.2583,-3.2583,0,-3.2594,-3.2594,-3.2594,-3.2567,-3.2566,-3.2565,-3.2564,-3.2575,-3.2576,-3.2577,0,0,0,0,0,0,0,0,0,0,0,0,0,-3.2536,-3.2537,-3.2583,-3.2583,-3.2583,-3.2594,-3.2594,-3.2594,-3.2567,-3.2566,-3.2565,-3.2564,-3.2574,-3.2575,-3.2577,0,0,0,0,0,0,0,0,0,0,0,0,0,-3.2553,-3.2538,-3.2583,-3.2571,-3.257,-3.2594,-3.2594,-3.2594,-3.2567,-3.2566,-3.2564,-3.2563,-3.2574,-3.2575,-3.2577,-3.2613,0,0,-3.2582,-3.2583,0,0,0,0,0,0,0,0,-3.2552,-3.2555,-3.2573,-3.2572,-3.2571,-3.2578,-3.2581,-3.26,-3.2567,-3.2568,-3.2564,-3.2563,-3.2577,-3.2578,-3.2583,-3.2613,-3.2614,-3.2582,-3.2583,-3.2584,-3.2584,0,0,0,0,0,0,0,-3.2551,-3.2554,-3.2587,-3.2573,-3.2572,-3.2564,-3.2565,-3.2585,-3.2579,-3.2568,-3.2566,-3.2568,-3.2576,-3.2581,-3.2583,-3.2614,-3.2582,-3.2583,-3.2584,-3.2585,-3.2672,-3.2673,0,0,0,0,0,0,-3.2551,-3.2553,-3.2587,-3.2588,-3.2558,-3.2566,-3.2567,-3.2577,-3.2579,-3.2578,-3.2569,-3.2566,-3.2579,-3.2581,-3.2583,-3.2623,-3.2584,-3.2585,-3.2586,-3.267,-3.2672,-3.2673,0,0,0,0,0,0,-3.2551,-3.2555,-3.2586,-3.257,-3.2573,-3.2568,-3.2579,-3.2578,-3.2583,-3.258,-3.2579,-3.2575,-3.2578,-3.2581,-3.2605,-3.2623,-3.2586,-3.2587,-3.2669,-3.2671,-3.2673,-3.2705,0,0,0,0,0,0,-3.2549,-3.2555,-3.2569,-3.257,-3.2574,-3.2609,-3.258,-3.2579,-3.2586,-3.2583,-3.2586,-3.2585,-3.2577,-3.2603,-3.2607,-3.2625,-3.2589,-3.2667,-3.267,-3.2672,-3.2703,-3.2708,-3.2713,0,0,0,0,0,-3.2548,-3.2578,-3.257,-3.2574,-3.2592,-3.261,-3.2612,-3.2603,-3.2588,-3.2601,-3.2599,-3.2585,-3.2621,-3.2605,-3.261,-3.2629,-3.2666,-3.2669,-3.2672,-3.27,-3.2707,-3.2713,0,0,0,0,0,0,-3.2579,-3.2578,-3.2569,-3.2601,-3.2606,-3.2606,-3.2623,-3.2611,-3.2621,-3.2618,-3.2606,-3.2606,-3.2632,-3.2633,-3.2616,-3.2662,-3.2641,-3.2645,-3.2661,-3.2667,-3.2672,-3.2671,-3.259,0,0,0,0,0,-3.259,-3.2605,-3.2603,-3.2631,-3.2634,-3.2628,-3.2636,-3.2628,-3.2633,-3.2635,-3.2634,-3.2639,-3.2651,-3.2659,-3.2671,-3.2703,-3.2702,-3.2718,-3.2723,-3.2727,-3.273,-3.2745,-3.2752,-3.2683,-3.2683,-3.2683,0,0,-3.2612,-3.2613,-3.2623,-3.2637,-3.264,-3.2655,-3.263,-3.2648,-3.2658,-3.2637,-3.266,-3.2659,-3.2664,-3.2692,-3.2704,-3.2693,-3.2749,-3.2731,-3.2734,-3.2735,-3.2749,-3.2756,-3.2761,-3.2685,-3.2685,-3.2685,0,0,-3.2659,-3.2662,-3.2685,-3.2688,-3.2693,-3.2688,-3.2694,-3.2695,-3.2694,-3.2716,-3.27,-3.2713,-3.2734,-3.2737,-3.2742,-3.2788,-3.2775,-3.2793,-3.2819,-3.2834,-3.284,-3.2844,-3.2859,-3.2865,-3.2796,-3.2796,-3.2796,0,-3.2686,-3.2708,-3.2698,-3.2716,-3.2722,-3.2703,-3.2725,-3.2729,-3.2737,-3.2741,-3.2729,-3.2754,-3.2756,-3.2783,-3.2795,-3.28,-3.2804,-3.2792,-3.284,-3.2844,-3.2849,-3.2863,-3.2869,-3.2798,-3.2798,-3.2798,-3.2797,0,-3.274,-3.2756,-3.2773,-3.2781,-3.2789,-3.2809,-3.2801,-3.281,-3.2801,-3.2798,-3.282,-3.2821,-3.2831,-3.2837,-3.2829,-3.2863,-3.2856,-3.2842,-3.282,-3.2857,-3.287,-3.2876,-3.2801,-3.28,-3.28,-3.2799,0,0,-3.2808,-3.2809,-3.2815,-3.2817,-3.282,-3.2832,-3.285,-3.286,-3.2867,-3.2873,-3.2887,-3.2905,-3.2892,-3.2897,-3.2889,-3.2902,-3.2937,-3.2887,-3.2886,-3.2895,-3.2972,-3.2981,-3.2988,-3.2928,-3.2929,-3.293,-3.2971,0,-3.2854,-3.2885,-3.2876,-3.2907,-3.2921,-3.2902,-3.2918,-3.2921,-3.2918,-3.2928,-3.2924,-3.2936,-3.2919,-3.2921,-3.2934,-3.293,-3.2952,-3.2927,-3.294,-3.2941,-3.2939,-3.2995,-3.3005,-3.3044,-3.2976,-3.2977,-3.2978,0,-3.2912,-3.2919,-3.2951,-3.295,-3.2955,-3.297,-3.2976,-3.2987,-3.2989,-3.2986,-3.2991,-3.2979,-3.2996,-3.2975,-3.2997,-3.298,-3.2985,-3.2984,-3.2985,-3.2985,-3.2961,-3.2995,-3.3056,-3.3061,-3.2986,-3.2985,-3.2985,0,-3.2956,-3.2974,-3.2995,-3.2998,-3.2997,-3.3007,-3.3007,-3.3008,-3.3014,-3.302,-3.3023,-3.3032,-3.3036,-3.3042,-3.3033,-3.3018,-3.3056,-3.3034,-3.3052,-3.3052,-3.306,-3.306,-3.3121,-3.3066,-3.3066,-3.3066,-3.3065,0,-3.3007,-3.3027,-3.3014,-3.3027,-3.3049,-3.3037,-3.3059,-3.3057,-3.3058,-3.3069,-3.3054,-3.3065,-3.3053,-3.3062,-3.3055,-3.3074,-3.3076,-3.3073,-3.3071,-3.3074,-3.3074,-3.3076,-3.3072,-3.3067,-3.3067,-3.3066,-3.3066,0,-3.306,-3.3052,-3.3074,-3.3071,-3.3071,-3.3087,-3.3084,-3.3095,-3.309,-3.3105,-3.3108,-3.31,-3.311,-3.3102,-3.3112,-3.3107,-3.3131,-3.3126,-3.313,-3.3128,-3.3147,-3.3145,-3.3211,-3.3218,-3.3159,-3.316,-3.316,0,-3.3093,-3.3108,-3.3106,-3.3112,-3.3113,-3.3124,-3.3129,-3.3118,-3.3124,-3.3126,-3.3137,-3.3146,-3.3153,-3.317,-3.3165,-3.3172,-3.3166,-3.3189,-3.3167,-3.3169,-3.3164,-3.3163,-3.3164,-3.3193,-3.3193,-3.3194,-3.3194,0,-3.3151,-3.3146,-3.3154,-3.316,-3.3167,-3.3172,-3.3175,-3.3181,-3.3169,-3.3177,-3.3187,-3.3192,-3.3202,-3.321,-3.3216,-3.3215,-3.3202,-3.3201,-3.3206,-3.3208,-3.321,-3.3207,-3.3141,-3.32,-3.3199,-3.3199,-3.3199,-3.3198,-3.3194,-3.3205,-3.3205,-3.3214,-3.3215,-3.3218,-3.3228,-3.3224,-3.3232,-3.3239,-3.3232,-3.3243,-3.3243,-3.3249,-3.325,-3.3259,-3.3249,-3.3256,-3.3257,-3.3259,-3.3261,-3.3209,-3.326,-3.326,-3.326,-3.3259,-3.3259,0,-3.3249,-3.3248,-3.3256,-3.3261,-3.3268,-3.3255,-3.3258,-3.3264,-3.3275,-3.3276,-3.3282,-3.3293,-3.33,-3.3296,-3.3302,-3.331,-3.3304,-3.3312,-3.331,-3.331,-3.327,-3.3265,-3.3316,-3.3316,-3.3316,-3.3316,-3.3316,-3.3316,-3.3279,-3.3297,-3.3292,-3.331,-3.3308,-3.3319,-3.3321,-3.3324,-3.3324,-3.3337,-3.3343,-3.3339,-3.3338,-3.3344,-3.335,-3.3348,-3.3351,-3.336,-3.3356,-3.3319,-3.3313,-3.3308,-3.3303,-3.3361,-3.3361,-3.3395,-3.3396,-3.3396]}]]